Change the Weather History Date:

Wednesday, June 12, 2013

  Actual Average Record
Temperature  
Mean Temperature 62 °F 66 °F  
Max Temperature 72 °F 79 °F 104 °F (1956)
Min Temperature 51 °F 54 °F 39 °F (1969)
Degree Days  
Heating Degree Days 3 2  
Month to date heating degree days 57 35  
Since 1 June heating degree days 57 35  
Since 1 July heating degree days 7675 7272  
Cooling Degree Days 0 3  
Month to date cooling degree days 13 30  
Year to date cooling degree days 35 62  
Since 1 June cooling degree days 13 30  
Growing Degree Days 12 (Base 50)    
Moisture  
Dew Point 53 °F    
Average Humidity 75    
Maximum Humidity 93    
Minimum Humidity 56    
Precipitation  
Precipitation 1.15 in 0.12 in 1.47 in (1977)
Month to date precipitation 1.74 1.57  
Year to date precipitation 10.60 8.77  
Sea Level Pressure  
Sea Level Pressure 29.97 in    
Wind  
Wind Speed 12 mph (North)    
Max Wind Speed 37 mph    
Max Gust Speed 55 mph    
Visibility 9 miles    
Events Fog , Rain , Thunderstorm    
T = Trace of Precipitation, MM = Missing Value Source: NWS Daily Summary

Daily Weather History Graph

Daily Weather History Graph

Search for Another Location

Airport or City:

Trip Planner

Search our weather history database for the weather conditions in past years. The results will help you decide how hot, cold, wet, or windy it might be!

Date:

Astronomy

Jun. 12, 2013 Rise Set
Actual Time 5:56 AM CDT 9:26 PM CDT
Civil Twilight 5:19 AM CDT 10:02 PM CDT
Nautical Twilight 4:31 AM CDT 10:50 PM CDT
Astronomical Twilight 3:29 AM CDT 11:52 PM CDT
Moon 9:44 AM CDT (6/12) 11:54 PM CDT (6/12)
Length of Visible Light 16h 42m
Length of Day
15h 29m
Waxing Crescent, 14% of the Moon is Illuminated
Jun 12
Waxing Crescent
Jun 16
First Quarter
Jun 23
Full
Jun 29
Last Quarter
Jul 8
New

Hourly Weather History & Observations

Time (CDT) Temp. Dew Point Humidity Pressure Visibility Wind Dir Wind Speed Gust Speed Precip Events Conditions
12:53 AM 64.0 °F 48.0 °F 56% 29.75 in 10.0 mi East 11.5 mph - N/A   Clear
1:20 AM 64.4 °F 48.2 °F 56% 29.94 in 10.0 mi SW 27.6 mph 36.8 mph N/A Thunderstorm Unknown
1:26 AM 60.8 °F 53.6 °F 77% 29.96 in 2.5 mi West 34.5 mph 55.2 mph 0.10 in Rain , Thunderstorm Heavy Thunderstorms and Rain
1:29 AM 59.0 °F 55.4 °F 88% 29.96 in 0.8 mi West 34.5 mph 55.2 mph 0.29 in Rain , Thunderstorm Heavy Thunderstorms and Rain
1:34 AM 57.2 °F 55.4 °F 94% 29.96 in 0.5 mi WNW 13.8 mph 55.2 mph 0.65 in Fog , Rain , Thunderstorm Heavy Thunderstorms and Rain
1:47 AM 55.4 °F 55.4 °F 100% 29.94 in 1.0 mi NW 21.9 mph 35.7 mph 1.01 in Rain , Thunderstorm Heavy Thunderstorms and Rain
1:53 AM 55.9 °F 55.0 °F 97% 29.92 in 2.5 mi NW 18.4 mph 26.5 mph 1.04 in Rain , Thunderstorm Heavy Thunderstorms and Rain
1:59 AM 55.4 °F 55.4 °F 100% 29.94 in 5.0 mi NW 18.4 mph - 0.01 in Rain , Thunderstorm Thunderstorms and Rain
2:25 AM 55.4 °F 53.6 °F 94% 29.90 in 6.0 mi North 18.4 mph 24.2 mph 0.08 in Rain , Thunderstorm Rain
2:46 AM 53.6 °F 51.8 °F 94% 29.74 in 10.0 mi NNE 36.8 mph 46.0 mph 0.11 in Rain Light Rain
2:53 AM 54.0 °F 52.0 °F 93% 29.76 in 10.0 mi North 24.2 mph 46.0 mph 0.11 in Rain Light Rain
3:53 AM 54.0 °F 48.9 °F 83% 29.79 in 10.0 mi NE 18.4 mph 28.8 mph 0.00 in   Clear
4:53 AM 53.1 °F 50.0 °F 89% 29.83 in 10.0 mi East 5.8 mph - N/A   Clear
5:53 AM 53.1 °F 50.0 °F 89% 29.88 in 10.0 mi West 11.5 mph - N/A   Clear
6:20 AM 53.6 °F 50.0 °F 88% 29.91 in 10.0 mi WNW 12.7 mph - N/A   Mostly Cloudy
6:53 AM 54.0 °F 51.1 °F 90% 29.89 in 10.0 mi NW 9.2 mph - N/A   Overcast
7:53 AM 55.0 °F 52.0 °F 89% 29.93 in 10.0 mi NW 11.5 mph - N/A   Overcast
8:42 AM 57.2 °F 51.8 °F 82% 29.96 in 10.0 mi NNW 10.4 mph - N/A   Overcast
8:53 AM 57.0 °F 53.1 °F 87% 29.95 in 10.0 mi NNW 9.2 mph - N/A   Overcast
9:53 AM 59.0 °F 54.0 °F 83% 29.97 in 10.0 mi NNW 13.8 mph - N/A   Overcast
10:24 AM 60.8 °F 55.4 °F 82% 29.99 in 10.0 mi North 17.3 mph 23.0 mph N/A   Overcast
10:44 AM 62.6 °F 55.4 °F 77% 30.00 in 10.0 mi North 21.9 mph 27.6 mph N/A   Mostly Cloudy
10:53 AM 62.1 °F 55.0 °F 78% 29.98 in 10.0 mi NNW 21.9 mph - N/A   Overcast
11:18 AM 62.6 °F 55.4 °F 77% 30.00 in 10.0 mi North 21.9 mph 27.6 mph N/A   Overcast
11:44 AM 62.6 °F 55.4 °F 77% 30.02 in - North 21.9 mph 28.8 mph N/A   Overcast
11:53 AM 62.1 °F 55.0 °F 78% 30.00 in - North - - N/A   Overcast
12:53 PM 64.9 °F 55.9 °F 73% 30.04 in 10.0 mi North 21.9 mph 29.9 mph N/A   Overcast
1:02 PM 64.4 °F 55.4 °F 73% 30.05 in 10.0 mi NNE 19.6 mph 29.9 mph N/A   Overcast
1:53 PM 68.0 °F 55.0 °F 63% 30.04 in 10.0 mi NNE 20.7 mph 27.6 mph N/A   Scattered Clouds
2:53 PM 69.1 °F 55.0 °F 61% 30.05 in 10.0 mi NNE 17.3 mph 26.5 mph N/A   Partly Cloudy
3:53 PM 70.0 °F 55.0 °F 59% 30.06 in 10.0 mi NNE 12.7 mph 26.5 mph N/A   Partly Cloudy
4:53 PM 71.1 °F 55.0 °F 57% 30.05 in 10.0 mi NNE 12.7 mph - N/A   Partly Cloudy
5:53 PM 72.0 °F 55.9 °F 57% 30.06 in 10.0 mi North 12.7 mph - N/A   Mostly Cloudy
6:53 PM 70.0 °F 53.1 °F 55% 30.05 in 10.0 mi North 11.5 mph - N/A   Clear
7:53 PM 69.1 °F 53.1 °F 57% 30.06 in 10.0 mi North 8.1 mph - N/A   Clear
8:53 PM 64.0 °F 55.0 °F 73% 30.07 in 10.0 mi NNE 8.1 mph - N/A   Clear
9:53 PM 59.0 °F 51.1 °F 75% 30.07 in 10.0 mi NNE 6.9 mph - N/A   Clear
10:53 PM 57.9 °F 52.0 °F 81% 30.09 in 10.0 mi NNE 4.6 mph - N/A   Clear
11:53 PM 57.9 °F 53.1 °F 84% 30.12 in 10.0 mi Calm Calm - N/A   Clear